Weather History for Yuma MCAS, AZ

Change the Weather History Date:

Saturday, September 1, 2012

  Actual Average Record
Temperature  
Mean Temperature 95 °F 93 °F  
Max Temperature 105 °F 105 °F 123 °F (1950)
Min Temperature 84 °F 81 °F 62 °F (1902)
Degree Days  
Heating Degree Days 0 0  
Month to date heating degree days 0 0  
Since 1 July heating degree days 0 0  
Cooling Degree Days 30 28  
Month to date cooling degree days 30 28  
Year to date cooling degree days 3586 3481  
Growing Degree Days 44 (Base 50)    
Moisture  
Dew Point 57 °F    
Average Humidity 41    
Maximum Humidity 70    
Minimum Humidity 11    
Precipitation  
Precipitation T in 0.02 in 0.51 in (1894)
Month to date precipitation T 0.02  
Year to date precipitation 2.03 2.11  
Sea Level Pressure  
Sea Level Pressure 29.79 in    
Wind  
Wind Speed 5 mph (SW)    
Max Wind Speed 10 mph    
Max Gust Speed 13 mph    
Visibility 10 miles    
Events      
T = Trace of Precipitation, MM = Missing Value Source: NWS Daily Summary

Daily Weather History Graph

Daily Weather History Graph

Search for Another Location

Airport:

Trip Planner

Search our weather history database for the weather conditions in past years. The results will help you decide how hot, cold, wet, or windy it might be!

Date:

Astronomy

Sep. 01, 2012 Rise Set
Actual Time 6:13 AM MST 7:02 PM MST
Civil Twilight 5:48 AM MST 7:27 PM MST
Nautical Twilight 5:18 AM MST 7:56 PM MST
Astronomical Twilight 4:48 AM MST 8:27 PM MST
Moon 7:30 PM MST (9/1) 7:17 AM MST (9/1)
Length of Visible Light 13h 38m
Length of Day
12h 48m
Full, 98% of the Moon is Illuminated
Sep 1
Full
Sep 8
Last Quarter
Sep 15
New
Sep 22
First Quarter
Sep 29
Full

Hourly Weather History & Observations

Time (MST) Temp. Heat Index Dew Point Humidity Pressure Visibility Wind Dir Wind Speed Gust Speed Precip Events Conditions
12:55 AM 87.1 °F 93.6 °F 72.0 °F 61% 29.78 in 10.0 mi Calm Calm - N/A   Partly Cloudy
1:55 AM 84.9 °F 90.7 °F 72.0 °F 65% 29.79 in 10.0 mi WNW 4.6 mph - N/A   Partly Cloudy
2:55 AM 87.1 °F 93.6 °F 72.0 °F 61% 29.79 in 10.0 mi SSW 4.6 mph - N/A   Mostly Cloudy
3:55 AM 84.9 °F 91.4 °F 73.0 °F 67% 29.79 in 10.0 mi SSW 4.6 mph - N/A   Mostly Cloudy
4:55 AM 84.9 °F 91.4 °F 73.0 °F 67% 29.79 in 10.0 mi Calm Calm - N/A   Mostly Cloudy
5:55 AM 84.9 °F 92.1 °F 73.9 °F 69% 29.81 in 10.0 mi South 5.8 mph - N/A   Mostly Cloudy
6:55 AM 84.0 °F 90.2 °F 73.0 °F 69% 29.82 in 10.0 mi SSE 6.9 mph - N/A   Mostly Cloudy
7:55 AM 84.9 °F 92.1 °F 73.9 °F 69% 29.84 in 10.0 mi South 6.9 mph - 0.00 in   Mostly Cloudy
8:55 AM 90.0 °F 99.0 °F 73.9 °F 59% 29.85 in 10.0 mi SSW 8.1 mph - N/A   Mostly Cloudy
9:55 AM 93.9 °F 94.8 °F 62.1 °F 35% 29.86 in 10.0 mi Variable 3.5 mph - N/A   Mostly Cloudy
10:55 AM 99.0 °F - 45.0 °F 16% 29.85 in 10.0 mi Variable 6.9 mph - N/A   Mostly Cloudy
11:55 AM 100.0 °F - 37.9 °F 12% 29.83 in 10.0 mi WNW 4.6 mph - N/A   Mostly Cloudy
12:55 PM 102.0 °F - 39.0 °F 11% 29.82 in 10.0 mi West 6.9 mph - N/A   Mostly Cloudy
1:55 PM 104.0 °F - 39.0 °F 11% 29.80 in 10.0 mi Variable 4.6 mph - N/A   Mostly Cloudy
2:55 PM 105.1 °F - 44.1 °F 13% 29.77 in 10.0 mi WNW 6.9 mph - N/A   Mostly Cloudy
3:55 PM 104.0 °F - 46.0 °F 14% 29.75 in 10.0 mi WSW 3.5 mph - N/A   Mostly Cloudy
4:55 PM 102.9 °F - 46.9 °F 15% 29.74 in 10.0 mi South 9.2 mph - N/A   Mostly Cloudy
5:55 PM 102.0 °F - 48.0 °F 16% 29.73 in 10.0 mi South 5.8 mph - N/A   Mostly Cloudy
6:55 PM 100.9 °F - 48.0 °F 17% 29.73 in 10.0 mi South 5.8 mph - N/A   Scattered Clouds
7:55 PM 97.0 °F 94.6 °F 53.1 °F 23% 29.75 in 10.0 mi South 5.8 mph - N/A   Scattered Clouds
8:55 PM 95.0 °F 92.7 °F 54.0 °F 25% 29.77 in 10.0 mi SW 3.5 mph - N/A   Scattered Clouds
9:55 PM 91.9 °F 90.3 °F 55.9 °F 30% 29.78 in 10.0 mi SSW 5.8 mph - N/A   Scattered Clouds
10:55 PM 93.0 °F - 46.0 °F 20% 29.79 in 10.0 mi West 8.1 mph - N/A   Scattered Clouds
11:55 PM 89.1 °F - 43.0 °F 20% 29.78 in 10.0 mi West 4.6 mph - N/A   Scattered Clouds